Temperature
-3 -3 -2 -2 -3 -2 -2 -2 -2 -2 -2 -1 -1 -1 -1 -1 -1 -1 -1 -1 -1 -1 -1 -1 -0 -1 -1 -1 -0 -0 -0 -0 -1 -0 0 1 1 1 1 1 1 1 2
-3 -3 -3 -3 -3 -3 -3 -3 -3 -2 -2 -2 -2 -2 -2 -2 -1 -1 -1 -1 -1 -1 -1 -1 -1 -1 -1 -1 -1 -1 -1 -1 -1 -1 -0 0 0 0 0 1 1 1 1
-4 -4 -4 -4 -4 -4 -3 -3 -3 -3 -3 -3 -3 -3 -2 -2 -2 -2 -2 -2 -2 -2 -2 -2 -2 -2 -2 -2 -2 -2 -2 -2 -2 -2 -1 -1 -0 -0 -0 -0 0 0 0
-5 -4 -4 -4 -4 -4 -4 -4 -4 -4 -4 -3 -3 -3 -3 -3 -3 -3 -3 -3 -3 -3 -3 -3 -3 -3 -2 -2 -3 -2 -2 -2 -2 -2 -2 -1 -1 -1 -1 -1 -1 -1 -0
-5 -5 -5 -5 -5 -5 -5 -5 -5 -4 -4 -4 -4 -4 -4 -4 -4 -4 -4 -3 -3 -3 -3 -3 -3 -3 -3 -3 -3 -3 -3 -3 -3 -3 -3 -2 -2 -2 -2 -1 -2 -1 -1
-6 -6 -6 -6 -6 -6 -6 -6 -5 -5 -5 -5 -5 -5 -5 -5 -4 -5 -5 -4 -4 -4 -4 -4 -4 -3 -3 -3 -3 -4 -4 -4 -4 -4 -3 -3 -3 -3 -2 -2 -3 -3 -3
-6 -6 -6 -6 -6 -6 -6 -6 -6 -6 -6 -6 -6 -6 -5 -5 -5 -5 -5 -5 -5 -5 -5 -5 -4 -4 -4 -4 -4 -4 -4 -4 -4 -4 -4 -4 -3 -3 -3 -3 -3 -3 -3
-7 -7 -7 -7 -7 -7 -7 -7 -7 -7 -7 -6 -6 -6 -6 -6 -6 -6 -6 -6 -6 -6 -5 -5 -5 -5 -5 -5 -5 -5 -5 -5 -5 -5 -5 -4 -4 -4 -4 -4 -4 -4 -4
-7 -7 -7 -7 -8 -8 -7 -7 -7 -7 -7 -7 -7 -7 -7 -7 -7 -7 -7 -7 -6 -6 -6 -6 -6 -6 -6 -6 -6 -6 -6 -5 -5 -5 -5 -5 -5 -5 -5 -5 -5 -5 -5
-8 -8 -8 -8 -8 -8 -8 -8 -8 -8 -8 -8 -8 -8 -8 -7 -7 -7 -7 -7 -7 -7 -7 -7 -7 -7 -7 -7 -7 -7 -7 -6 -6 -6 -6 -5 -5 -5 -5 -5 -5 -5 -5
-8 -8 -8 -9 -9 -9 -9 -9 -9 -9 -9 -9 -9 -8 -8 -8 -8 -8 -8 -8 -8 -8 -8 -8 -8 -8 -8 -7 -8 -7 -7 -7 -7 -7 -6 -6 -6 -6 -6 -6 -6 -6 -6
-9 -9 -9 -9 -9 -9 -9 -9 -9 -10 -10 -9 -9 -9 -9 -9 -9 -9 -9 -9 -9 -9 -9 -8 -8 -8 -8 -8 -8 -8 -8 -8 -8 -8 -7 -7 -7 -7 -7 -6 -6 -6 -6
-9 -9 -9 -9 -10 -10 -10 -10 -10 -10 -10 -10 -10 -10 -10 -10 -10 -10 -10 -10 -9 -9 -9 -9 -9 -9 -9 -9 -9 -9 -9 -9 -9 -8 -8 -8 -8 -7 -7 -7 -7 -7 -7
-10 -10 -10 -10 -10 -10 -10 -10 -11 -11 -11 -11 -11 -11 -11 -11 -10 -10 -10 -10 -10 -10 -10 -10 -10 -10 -10 -10 -10 -9 -9 -9 -9 -9 -9 -9 -9 -8 -8 -8 -8 -8 -8
-11 -11 -11 -11 -11 -11 -11 -11 -11 -11 -11 -11 -11 -12 -11 -11 -11 -11 -11 -11 -11 -11 -11 -11 -11 -11 -11 -10 -10 -10 -10 -10 -10 -10 -10 -10 -9 -9 -9 -9 -9 -9 -9
-11 -11 -11 -11 -11 -12 -12 -12 -12 -12 -12 -12 -12 -12 -12 -12 -12 -12 -12 -12 -12 -12 -12 -11 -11 -11 -11 -11 -11 -11 -11 -11 -11 -11 -11 -10 -10 -10 -10 -9 -9 -9 -9
-12 -12 -12 -12 -12 -12 -12 -12 -12 -12 -12 -12 -12 -12 -13 -13 -13 -12 -12 -12 -12 -12 -12 -12 -12 -12 -12 -12 -12 -12 -11 -11 -11 -11 -11 -11 -11 -11 -10 -10 -10 -10 -10
-13 -13 -13 -13 -13 -13 -13 -13 -13 -13 -13 -13 -13 -13 -13 -13 -13 -13 -13 -13 -13 -13 -13 -12 -12 -12 -12 -12 -12 -12 -12 -12 -12 -12 -12 -12 -11 -11 -11 -11 -11 -11 -11
-13 -13 -13 -13 -13 -13 -13 -13 -14 -14 -14 -13 -13 -13 -13 -13 -13 -13 -13 -13 -13 -13 -13 -13 -13 -13 -13 -13 -13 -13 -13 -12 -12 -12 -12 -12 -12 -12 -11 -11 -11 -11 -11
-14 -14 -14 -14 -14 -14 -14 -14 -14 -14 -14 -14 -14 -14 -14 -14 -14 -14 -14 -14 -14 -14 -13 -13 -13 -13 -13 -13 -13 -13 -13 -13 -13 -13 -13 -12 -12 -12 -12 -12 -12 -12 -12
-14 -14 -15 -15 -15 -15 -15 -14 -14 -15 -15 -15 -14 -14 -14 -14 -14 -14 -14 -14 -14 -14 -14 -14 -14 -14 -14 -14 -14 -13 -13 -13 -13 -13 -13 -13 -13 -12 -12 -12 -12 -12 -12
-15 -15 -15 -15 -15 -15 -15 -15 -15 -15 -15 -15 -15 -15 -15 -15 -15 -14 -14 -14 -14 -14 -14 -14 -14 -14 -14 -14 -14 -14 -14 -14 -14 -13 -13 -13 -13 -13 -13 -12 -12 -12 -12
-15 -15 -15 -15 -15 -15 -15 -15 -16 -15 -15 -15 -15 -15 -15 -15 -15 -15 -15 -15 -14 -14 -14 -14 -14 -14 -14 -14 -14 -14 -14 -14 -14 -14 -13 -13 -13 -13 -13 -13 -13 -13 -13
-16 -16 -16 -16 -16 -16 -16 -16 -16 -16 -16 -16 -16 -15 -15 -15 -15 -15 -15 -15 -15 -15 -15 -15 -15 -15 -14 -14 -14 -14 -14 -14 -14 -14 -14 -14 -14 -13 -13 -13 -13 -13 -13
-16 -16 -16 -16 -16 -16 -16 -16 -16 -16 -16 -16 -16 -16 -16 -15 -15 -15 -15 -15 -15 -15 -15 -15 -15 -15 -15 -15 -14 -14 -14 -14 -14 -14 -14 -14 -14 -13 -13 -13 -13 -13 -13
-17 -17 -17 -17 -17 -17 -17 -17 -16 -16 -16 -16 -16 -16 -16 -16 -16 -16 -15 -15 -15 -15 -15 -15 -15 -15 -15 -15 -14 -14 -14 -14 -14 -14 -14 -14 -14 -14 -13 -13 -13 -13 -13
Wind_Speed
2 2 3 3 3 3 3 4 4 4 4 4 4 4 4 5 5 5 5 5 6 6 6 6 6 6 5 5 5 5 5 6 8 7 5 5 6 6 6 8 8 8 8
3 3 3 3 3 3 3 4 4 4 4 4 4 5 5 5 5 6 6 7 7 8 7 7 8 6 7 6 6 7 7 7 7 9 7 5 7 7 7 7 7 8 9
3 3 3 3 3 3 3 4 4 4 4 4 4 5 5 5 5 6 6 7 8 8 8 8 8 8 8 7 7 7 7 6 7 8 7 6 6 5 6 7 7 7 9
3 3 3 3 3 4 4 4 4 4 4 4 5 5 5 5 5 6 6 7 7 8 8 8 9 9 9 9 8 8 8 7 7 8 7 6 6 6 6 6 6 6 7
3 3 3 4 4 4 4 4 4 4 4 5 5 5 5 5 5 6 6 7 7 8 8 9 9 10 11 10 8 9 8 8 8 8 8 7 6 5 6 6 7 6 7
3 4 4 4 4 4 4 4 4 4 4 5 5 5 6 5 6 8 7 7 7 8 8 9 9 10 12 14 15 14 12 10 10 9 9 9 9 8 7 7 7 6 6
4 4 4 4 4 4 4 4 4 5 5 5 5 6 6 7 8 9 9 8 8 8 9 8 7 8 10 10 12 14 14 15 14 12 12 12 10 9 8 9 9 9 8
4 4 4 4 4 4 4 5 5 5 5 5 5 6 6 7 8 9 9 9 8 9 9 9 8 8 8 8 8 9 10 11 13 12 12 12 11 10 9 9 9 9 8
4 4 4 4 4 5 5 5 5 5 5 5 5 6 6 7 8 9 9 7 7 8 8 8 8 8 9 9 8 9 9 9 11 13 14 14 14 14 12 7 7 7 8
5 5 5 5 5 5 6 6 5 5 5 5 5 5 6 6 7 8 8 5 6 6 6 6 8 9 9 10 9 8 9 9 8 8 9 11 11 12 13 11 9 9 8
5 5 5 5 5 6 5 5 5 5 5 5 5 5 6 7 8 8 8 5 5 5 5 5 5 8 10 11 10 9 10 9 8 8 8 8 8 7 8 10 10 9 9
5 5 5 5 5 4 5 5 5 4 5 5 5 5 5 5 7 7 8 8 7 6 5 5 6 8 9 11 10 10 11 10 7 7 7 7 7 7 6 7 8 9 9
4 5 5 5 4 4 4 5 4 4 4 4 4 5 5 4 5 7 8 8 8 6 6 8 9 9 9 8 9 10 9 7 6 7 7 7 7 6 6 6 6 7 8
5 5 4 4 4 4 4 4 4 4 4 4 5 5 5 5 5 5 5 5 6 6 6 7 9 9 8 8 8 7 6 6 6 7 7 7 6 6 6 6 6 5 5
5 5 4 4 4 4 4 5 5 6 6 6 6 6 5 6 6 8 7 6 6 6 6 5 5 5 5 5 5 6 6 6 6 6 7 6 7 6 6 6 6 6 6
5 5 4 4 4 4 4 4 6 7 8 9 9 9 8 9 10 11 10 10 10 9 7 6 6 6 6 6 6 6 6 6 6 6 6 6 7 7 6 6 6 7 7
5 5 4 4 4 4 4 4 4 5 7 8 9 9 9 10 10 10 9 9 9 8 6 6 6 6 6 6 6 6 6 6 6 6 7 7 7 7 7 7 7 7 7
5 6 5 4 4 4 4 4 4 5 5 5 6 8 9 9 9 8 8 7 6 5 5 6 6 6 6 6 6 6 6 6 6 6 7 7 7 7 7 7 7 7 7
5 4 4 4 4 4 4 4 4 5 5 5 5 6 7 8 8 7 7 5 5 5 5 6 6 6 6 6 6 6 6 7 7 7 7 7 7 7 7 7 8 9 9
4 6 5 4 4 4 4 4 4 4 5 5 5 5 5 5 5 5 5 4 5 5 6 6 6 6 6 6 6 6 6 7 7 7 7 7 7 7 8 8 8 8 8
4 5 6 5 4 4 4 4 4 5 5 5 5 6 8 5 5 6 5 5 5 6 6 6 6 6 6 6 6 6 7 7 7 7 7 7 7 7 7 7 8 8 8
4 4 4 4 4 4 4 4 5 5 5 6 6 6 8 6 5 6 6 6 6 6 6 6 6 6 6 6 6 7 7 7 7 7 7 7 7 7 7 7 7 7 7
4 4 4 4 4 5 5 5 5 5 6 6 6 5 5 5 6 6 6 6 6 6 6 6 7 7 7 7 8 8 8 8 8 8 8 8 7 7 7 8 8 8 8
4 5 5 5 5 5 5 5 5 5 6 6 6 6 6 6 6 7 7 7 6 6 7 7 7 9 10 9 9 9 10 10 10 9 10 9 9 8 8 8 8 9 8
4 5 5 5 5 5 5 5 6 6 6 6 6 6 6 6 7 7 7 6 7 7 8 8 8 9 11 11 11 11 13 14 14 11 10 9 9 9 9 9 8 8 8
4 4 4 4 5 5 5 5 6 6 6 6 6 6 6 6 7 7 7 6 6 7 8 8 9 11 12 12 13 14 15 15 15 14 12 9 9 9 8 8 9 8 8
Wind_Direction
304 295 291 291 289 285 277 271 271 271 260 253 252 253 250 251 245 239 238 237 231 232 230 230 233 235 235 232 229 230 234 238 251 262 259 252 244 250 254 256 255 252 253
300 296 291 292 290 285 285 287 285 278 272 261 257 254 253 252 250 244 243 241 237 235 234 233 235 234 236 238 235 234 236 239 247 259 262 255 251 248 252 255 258 253 254
304 297 293 290 287 287 289 290 290 285 282 274 261 256 256 254 253 253 251 247 245 242 238 237 239 237 239 239 240 242 243 244 248 256 264 264 259 252 255 259 257 256 256
299 289 288 289 290 290 292 293 291 289 283 278 269 264 261 257 252 254 255 253 252 250 247 243 242 240 242 242 242 242 243 245 246 251 259 262 257 252 249 252 257 254 256
290 286 287 291 291 292 292 291 290 287 285 281 275 268 263 257 255 255 254 254 253 254 253 249 247 246 248 246 245 244 242 244 247 251 257 261 256 250 246 250 255 259 258
280 282 288 290 291 293 293 292 288 286 282 279 275 269 263 261 263 260 261 259 256 254 255 255 253 249 247 248 249 250 248 246 247 250 256 257 257 255 252 247 252 257 260
274 280 286 290 292 294 295 293 287 283 281 277 275 272 268 266 266 262 260 261 260 258 256 257 256 256 253 252 253 252 249 247 247 250 253 255 260 255 253 248 243 250 258
267 274 280 285 288 295 296 291 288 284 279 277 276 277 278 278 277 267 263 260 260 259 259 257 257 259 255 255 257 257 256 252 249 248 253 257 258 257 251 252 253 256 265
265 272 278 277 281 286 286 287 285 282 279 278 277 278 278 283 285 278 270 264 261 261 262 260 259 259 259 258 258 259 263 264 260 257 258 260 260 258 254 251 249 247 257
268 273 275 273 271 274 277 282 282 278 276 278 277 278 278 281 285 281 275 268 266 267 268 267 264 264 264 258 254 255 259 264 267 265 263 263 260 256 248 240 240 242 251
276 275 273 271 269 270 273 274 274 275 275 274 274 277 278 281 283 280 276 271 269 268 268 270 270 273 269 263 260 257 261 268 268 266 264 264 262 257 250 243 240 240 242
274 273 272 271 272 270 271 273 271 269 267 270 273 276 276 278 281 279 276 274 273 268 271 275 279 280 277 271 266 266 269 269 265 264 262 261 262 259 258 254 249 248 248
272 272 274 276 271 266 263 265 265 261 262 269 271 274 277 279 278 280 281 280 278 272 273 277 281 281 279 276 276 276 272 266 265 264 263 263 265 265 261 260 256 252 256
266 270 271 272 273 267 261 256 255 256 260 265 269 273 277 277 277 279 278 280 281 277 277 277 277 276 273 272 274 273 266 263 262 263 267 269 270 265 259 261 259 252 255
265 266 268 267 268 267 263 259 259 257 257 262 266 271 274 275 277 281 279 277 276 274 279 276 270 268 266 266 265 265 264 262 262 262 264 266 267 263 262 260 257 252 251
265 265 265 266 266 265 269 276 270 272 274 273 274 276 276 278 283 280 277 279 281 278 273 266 266 265 264 266 267 267 265 264 265 265 264 263 265 261 260 259 255 252 251
260 265 265 263 261 263 263 268 282 287 283 280 281 280 281 285 284 281 277 278 279 276 268 264 265 267 268 269 268 266 266 266 266 264 264 264 266 262 258 257 255 253 256
262 262 262 262 262 262 261 264 270 278 287 288 289 288 290 293 292 290 286 279 271 267 262 261 263 267 268 268 269 270 270 269 266 264 263 263 264 261 256 254 253 253 255
263 261 263 265 265 264 265 267 271 275 279 284 290 293 295 299 300 295 291 272 264 264 263 262 263 265 266 267 267 268 269 268 267 266 265 264 262 260 257 255 255 255 254
262 264 269 268 266 266 266 268 271 275 279 282 285 292 300 299 292 290 287 272 265 265 264 264 265 266 267 267 266 267 268 268 268 264 264 265 262 261 258 256 255 255 254
267 266 268 269 265 265 266 267 269 272 275 280 284 288 295 292 288 284 281 276 266 265 265 265 266 266 265 266 267 267 267 267 268 267 265 265 263 263 262 258 256 255 255
265 266 265 265 267 267 269 269 271 273 276 281 287 291 295 293 287 285 280 277 273 268 267 266 265 264 264 264 264 265 265 267 267 269 269 266 263 263 263 259 255 256 254
266 268 270 269 268 272 275 273 272 274 276 279 284 289 291 288 285 284 283 281 280 275 268 264 264 264 263 261 261 260 261 263 265 268 268 268 264 262 262 259 257 256 252
264 266 268 270 270 270 272 274 274 275 276 279 282 284 286 286 285 285 285 284 280 275 270 266 263 263 265 266 265 262 259 261 264 263 261 262 263 263 259 256 258 256 252
269 269 270 271 271 272 273 275 276 278 278 279 281 283 286 287 286 287 287 284 282 278 277 273 267 266 265 265 265 265 268 269 267 264 261 258 259 258 256 256 254 255 250
280 277 276 276 275 274 273 275 277 279 279 280 282 282 284 286 287 288 288 286 286 283 279 275 269 269 271 270 269 269 270 270 270 269 266 262 259 256 252 252 252 246 245
Height
1491 1491 1491 1491 1492 1492 1492 1492 1492 1492 1492 1493 1493 1493 1494 1494 1494 1495 1495 1496 1496 1497 1498 1498 1499 1500 1501 1502 1503 1503 1504 1505 1505 1504 1505 1506 1506 1507 1507 1508 1508 1508 1508
1488 1488 1488 1488 1488 1488 1488 1488 1488 1488 1488 1488 1488 1489 1489 1489 1489 1489 1490 1490 1491 1491 1492 1493 1494 1495 1496 1496 1497 1498 1499 1499 1499 1499 1499 1500 1500 1501 1501 1501 1502 1502 1502
1485 1485 1485 1484 1484 1484 1484 1484 1484 1484 1484 1484 1484 1484 1484 1484 1484 1484 1485 1485 1485 1486 1487 1487 1488 1489 1490 1491 1492 1492 1493 1493 1494 1494 1493 1494 1494 1495 1495 1495 1496 1496 1496
1482 1482 1481 1481 1481 1480 1480 1480 1480 1480 1480 1479 1479 1479 1479 1479 1479 1479 1479 1479 1480 1480 1481 1481 1482 1483 1484 1485 1486 1486 1487 1488 1488 1488 1487 1487 1488 1488 1488 1489 1489 1490 1490
1479 1479 1478 1478 1477 1477 1477 1476 1476 1476 1476 1475 1475 1475 1474 1474 1474 1474 1474 1474 1474 1474 1475 1475 1476 1476 1477 1479 1479 1480 1481 1481 1482 1481 1481 1481 1481 1482 1482 1482 1483 1483 1483
1476 1475 1475 1474 1474 1473 1473 1473 1472 1472 1471 1471 1470 1470 1469 1469 1469 1469 1469 1469 1469 1469 1469 1469 1469 1470 1471 1472 1473 1473 1474 1475 1475 1475 1475 1475 1475 1476 1476 1476 1477 1476 1476
1473 1472 1471 1471 1470 1470 1469 1468 1468 1467 1466 1466 1465 1465 1464 1464 1464 1464 1464 1464 1463 1463 1463 1463 1463 1463 1464 1465 1465 1466 1466 1467 1468 1469 1468 1468 1469 1470 1470 1470 1470 1470 1470
1469 1468 1468 1467 1466 1465 1465 1464 1463 1462 1462 1461 1460 1460 1459 1459 1459 1458 1458 1458 1457 1457 1457 1457 1457 1457 1458 1458 1459 1459 1459 1460 1461 1461 1461 1461 1462 1463 1464 1464 1464 1464 1464
1465 1464 1464 1463 1462 1461 1460 1459 1459 1458 1457 1456 1456 1455 1454 1453 1453 1453 1453 1452 1452 1451 1451 1451 1451 1451 1452 1452 1453 1452 1452 1453 1453 1454 1454 1454 1455 1455 1456 1457 1457 1457 1456
1461 1461 1460 1459 1458 1457 1456 1455 1454 1454 1453 1452 1451 1450 1449 1448 1448 1448 1448 1447 1446 1446 1445 1445 1445 1445 1446 1446 1447 1446 1446 1446 1447 1446 1447 1447 1447 1448 1449 1450 1450 1450 1450
1458 1457 1456 1455 1454 1453 1452 1451 1450 1449 1448 1447 1446 1445 1444 1444 1443 1443 1443 1442 1442 1441 1440 1440 1440 1440 1440 1440 1440 1440 1440 1441 1440 1440 1440 1440 1440 1440 1441 1442 1443 1443 1443
1454 1453 1452 1451 1450 1449 1448 1447 1446 1445 1444 1443 1442 1441 1440 1439 1439 1438 1438 1437 1437 1436 1436 1435 1435 1435 1435 1435 1435 1435 1435 1435 1434 1434 1433 1433 1434 1434 1434 1435 1435 1436 1436
1450 1449 1448 1447 1446 1445 1444 1443 1442 1441 1440 1438 1437 1436 1435 1435 1434 1433 1433 1433 1432 1432 1431 1431 1430 1430 1430 1429 1429 1429 1429 1429 1428 1428 1428 1427 1428 1428 1428 1429 1429 1429 1429
1445 1444 1443 1443 1442 1441 1440 1439 1438 1437 1435 1434 1433 1432 1431 1430 1430 1429 1428 1428 1427 1427 1426 1426 1425 1425 1424 1424 1424 1423 1423 1423 1423 1423 1422 1422 1422 1422 1422 1422 1423 1423 1423
1441 1440 1439 1438 1437 1436 1435 1434 1433 1433 1432 1431 1429 1428 1427 1426 1425 1425 1424 1423 1423 1422 1422 1421 1420 1420 1419 1418 1418 1418 1418 1417 1417 1417 1417 1417 1416 1416 1416 1416 1417 1416 1416
1437 1436 1435 1434 1433 1432 1431 1430 1428 1428 1427 1426 1425 1424 1422 1422 1421 1420 1419 1419 1418 1418 1417 1416 1415 1414 1414 1413 1413 1412 1412 1412 1412 1412 1411 1411 1411 1410 1410 1410 1411 1410 1410
1433 1432 1431 1430 1429 1428 1426 1425 1424 1423 1423 1421 1420 1419 1418 1417 1416 1415 1414 1413 1413 1412 1412 1410 1410 1409 1409 1408 1408 1407 1407 1406 1406 1406 1406 1405 1405 1405 1404 1404 1404 1404 1404
1429 1428 1427 1426 1425 1424 1423 1422 1420 1419 1417 1416 1415 1414 1413 1412 1411 1409 1409 1408 1407 1407 1406 1405 1405 1404 1404 1403 1403 1402 1401 1401 1400 1400 1400 1399 1399 1399 1398 1398 1398 1398 1398
1425 1424 1423 1422 1421 1420 1419 1418 1417 1415 1414 1412 1411 1410 1409 1407 1406 1405 1404 1403 1402 1401 1401 1400 1399 1399 1398 1398 1397 1396 1396 1395 1395 1394 1394 1394 1393 1393 1392 1392 1392 1391 1392
1421 1420 1419 1418 1417 1416 1415 1414 1413 1411 1410 1408 1407 1405 1404 1403 1401 1400 1399 1397 1397 1396 1395 1395 1394 1394 1393 1393 1392 1391 1390 1389 1389 1388 1388 1388 1387 1387 1386 1385 1385 1385 1385
1417 1416 1416 1414 1413 1412 1411 1410 1409 1407 1406 1404 1403 1402 1401 1399 1397 1395 1394 1393 1392 1391 1390 1390 1389 1388 1388 1387 1386 1385 1385 1384 1383 1382 1382 1381 1381 1380 1380 1379 1379 1379 1379
1414 1413 1412 1411 1409 1408 1407 1406 1405 1403 1402 1400 1399 1397 1396 1394 1392 1391 1389 1388 1387 1386 1385 1384 1384 1383 1382 1382 1381 1380 1379 1378 1377 1377 1376 1375 1375 1374 1374 1373 1373 1373 1373
1410 1409 1408 1407 1406 1404 1403 1402 1400 1399 1398 1396 1394 1393 1391 1389 1388 1386 1385 1383 1382 1381 1380 1379 1378 1377 1377 1376 1375 1374 1373 1372 1372 1371 1370 1369 1369 1368 1368 1368 1367 1367 1367
1407 1405 1404 1403 1402 1400 1399 1397 1396 1395 1393 1392 1390 1388 1387 1385 1383 1381 1380 1378 1377 1375 1374 1373 1372 1371 1371 1370 1369 1368 1367 1367 1366 1365 1364 1363 1362 1362 1362 1362 1361 1361 1361
1403 1402 1400 1399 1398 1396 1395 1393 1392 1390 1389 1387 1385 1384 1382 1380 1378 1376 1374 1373 1371 1370 1369 1368 1367 1366 1365 1364 1363 1362 1361 1361 1360 1359 1358 1357 1356 1356 1356 1356 1355 1355 1356
1400 1398 1397 1395 1394 1392 1391 1389 1387 1386 1384 1382 1381 1379 1377 1376 1374 1372 1370 1368 1366 1364 1363 1362 1361 1360 1359 1358 1357 1356 1355 1355 1354 1354 1353 1352 1351 1350 1350 1350 1350 1350 1350